Location: Newark
(54.2500°N, 9.1833°E)
Time: 10:03:59
(UTC+00:00)

Vanguard 2 - All Passes

Search period start: 09 December 2019 00:00
Search period end: 19 December 2019 00:00
Orbit: 553 x 2938 km, 32.9° (Epoch: 08 December)

Date Brightness Start Highest point End Pass type
(mag) Time Alt. Az. Time Alt. Az. Time Alt. Az.
09 Dec - 01:20:28 10° SSW 01:33:32 28° SSE 01:46:42 10° ESE visible
09 Dec - 03:28:32 10° WSW 03:43:11 34° S 03:56:16 10° SE visible
09 Dec - 05:39:34 10° WSW 05:52:26 27° SSW 06:03:02 10° SSE visible
09 Dec - 07:56:11 10° WSW 07:59:59 11° SW 08:03:31 10° SSW daylight
09 Dec - 23:32:39 10° S 23:42:00 18° SE 23:52:05 10° ESE visible
10 Dec - 01:37:16 10° SW 01:50:51 31° SSE 02:04:34 10° ESE visible
10 Dec - 03:46:00 10° WSW 04:00:34 33° S 04:13:37 10° SE visible
10 Dec - 05:57:38 10° WSW 06:09:35 23° SSW 06:19:38 10° SSE visible
10 Dec - 23:48:25 10° S 23:59:04 22° SSE 00:10:45 10° ESE visible
11 Dec - 01:54:17 10° SW 02:08:12 33° S 02:22:16 10° ESE visible
11 Dec - 04:03:36 10° WSW 04:17:56 32° SSW 04:30:49 10° SE visible
11 Dec - 06:16:02 10° WSW 06:26:39 20° SW 06:35:50 10° S visible
11 Dec - 22:06:49 10° SE 22:08:26 10° SE 22:10:05 10° SE night (unlit)
12 Dec - 00:04:42 10° SSW 00:16:12 26° SSE 00:29:01 10° ESE visible
12 Dec - 02:11:30 10° SW 02:25:34 34° S 02:39:50 10° ESE visible
12 Dec - 04:21:20 10° WSW 04:35:15 30° SSW 04:47:49 10° SSE visible
12 Dec - 06:34:57 10° WSW 06:43:38 16° SW 06:51:24 10° S visible
12 Dec - 22:18:52 10° SSE 22:25:17 14° SE 22:32:23 10° ESE visible
13 Dec - 00:21:21 10° SSW 00:33:24 29° SSE 00:47:01 10° ESE visible
13 Dec - 02:28:52 10° WSW 02:42:58 34° S 02:57:16 10° SE visible
13 Dec - 04:39:15 10° WSW 04:52:30 27° SSW 05:04:35 10° SSE visible
13 Dec - 06:55:02 10° WSW 07:00:32 12° SW 07:05:41 10° SSW visible
13 Dec - 22:33:59 10° S 22:42:13 18° SE 22:51:45 10° ESE visible
14 Dec - 00:38:16 10° SW 00:50:41 31° SSE 01:04:50 10° ESE visible
14 Dec - 02:46:23 10° WSW 03:00:21 34° S 03:14:33 10° SE visible
14 Dec - 04:57:23 10° WSW 05:09:41 24° SSW 05:21:02 10° SSE visible
14 Dec - 22:49:57 10° S 22:59:14 21° SSE 23:10:21 10° ESE visible
15 Dec - 00:55:23 10° SW 01:08:01 33° S 01:22:29 10° ESE visible
15 Dec - 03:04:02 10° WSW 03:17:43 32° SSW 03:31:39 10° SE visible
15 Dec - 05:15:50 10° WSW 05:26:47 20° SW 05:37:02 10° S visible
15 Dec - 23:06:23 10° SSW 23:16:21 25° SSE 23:28:33 10° ESE visible
16 Dec - 01:12:41 10° SW 01:25:23 33° S 01:40:00 10° ESE visible
16 Dec - 03:21:50 10° WSW 03:35:03 30° SSW 03:48:32 10° SSE visible
16 Dec - 05:34:52 10° WSW 05:43:48 16° SW 05:52:20 10° S visible
16 Dec - 21:21:13 10° SSE 21:25:56 13° SE 21:31:14 10° ESE night (unlit)
16 Dec - 23:23:09 10° SSW 23:33:33 27° SSE 23:46:30 10° ESE visible
17 Dec - 01:30:07 10° WSW 01:42:47 33° S 01:57:22 10° SE visible
17 Dec - 03:39:48 10° WSW 03:52:20 26° SSW 04:05:09 10° SSE visible
17 Dec - 05:55:15 10° WSW 06:00:45 12° SW 06:06:08 10° SSW visible
17 Dec - 21:36:20 10° S 21:42:52 16° SE 21:50:42 10° ESE night (unlit)
17 Dec - 23:40:09 10° SW 23:50:49 29° SSE 00:04:17 10° ESE visible
18 Dec - 01:47:41 10° WSW 02:00:11 32° S 02:14:34 10° SE visible
18 Dec - 03:58:01 10° WSW 04:09:34 23° SSW 04:21:24 10° SSE visible
18 Dec - 21:52:23 10° S 21:59:53 19° SSE 22:09:19 10° ESE night (unlit)
